FW1657 Weather Reports


Display with metric or nautical units.
time (UTC)temp
F
wind
direction
speed
MPH
gust
MPH
rain 1hr
in
rain 24hr
in
rain mn
in
humidity
%
barometer
mb
20260904074554 68 87 9.0 16.0 0.00 0.00 0.00 82 1017.1
20260904073152 68 67 9.0 21.0 0.00 0.00 0.00 83 1017.0
20260904071552 67 43 11.0 18.0 0.00 0.00 0.00 84 1017.1
20260904070046 66 77 10.0 15.0 0.00 0.00 0.00 85 1017.2
20260904064542 65 39 7.0 12.0 0.00 0.00 0.00 86 1017.2
20260904063045 64 73 7.0 13.0 0.00 0.00 0.00 88 1017.4
20260904061539 63 74 4.0 10.0 0.00 0.00 0.00 89 1017.4
20260904060038 63 61 6.0 11.0 0.00 0.00 0.00 89 1017.6
20260904054537 62 40 7.0 11.0 0.00 0.00 0.00 89 1017.6
20260904053034 62 43 6.0 10.0 0.00 0.00 0.00 89 1017.7
20260904051533 62 32 7.0 10.0 0.00 0.00 0.00 89 1017.6
20260904050030 62 42 5.0 8.0 0.00 0.00 0.00 89 1017.7
20260904044528 62 57 5.0 10.0 0.00 0.00 0.00 88 1017.6
20260904043027 63 71 5.0 9.0 0.00 0.00 0.00 88 1017.7
20260904041526 63 48 7.0 12.0 0.00 0.00 0.00 88 1017.6
20260904040024 63 49 7.0 10.0 0.00 0.00 0.00 87 1017.7
20260904034526 64 45 7.0 11.0 0.00 0.00 0.00 87 1017.9
20260904033032 64 43 5.0 11.0 0.00 0.00 0.00 87 1018.1
20260904031519 64 25 6.0 10.0 0.00 0.00 0.00 87 1018.0
20260904030017 65 40 5.0 8.0 0.00 0.00 0.00 86 1018.2
20260904024517 65 22 7.0 10.0 0.00 0.00 0.00 87 1018.4
20260904023013 65 34 6.0 11.0 0.00 0.00 0.00 88 1018.7
20260904021512 65 35 7.0 10.0 0.00 0.00 0.00 88 1018.7
20260904020008 64 33 6.0 9.0 0.00 0.00 0.00 88 1019.0
20260904014506 64 49 5.0 9.0 0.00 0.00 0.00 88 1019.1
20260904013014 64 70 6.0 8.0 0.00 0.00 0.00 89 1019.2
20260904011502 64 47 4.0 6.0 0.00 0.00 0.00 89 1019.5
20260904010002 64 36 4.0 9.0 0.00 0.00 0.00 88 1019.4
20260904004602 64 56 4.0 9.0 0.00 0.00 0.00 88 1019.7
20260904003111 64 28 3.0 9.0 0.00 0.00 0.00 88 1019.9
20260904001558 64 44 4.0 7.0 0.00 0.00 0.00 88 1019.9
20260904000055 64 46 3.0 6.0 0.00 0.00 0.00 89 1020.1
20260903234554 64 85 4.0 8.0 0.00 0.00 0.00 90 1020.1
20260903233053 63 35 4.0 7.0 0.00 0.00 0.00 90 1020.3
20260903231552 63 50 3.0 4.0 0.00 0.00 0.00 89 1020.2
20260903224549 64 54 2.0 3.0 0.00 0.00 0.00 89 1020.5
20260903223046 64 54 2.0 4.0 0.00 0.00 0.00 89 1020.7
20260903221546 64 54 2.0 4.0 0.00 0.00 0.00 89 1020.6
20260903220044 64 49 2.0 5.0 0.00 0.00 0.00 88 1020.7
20260903214545 64 60 2.0 4.0 0.00 0.00 0.00 87 1020.8
20260903213049 65 71 2.0 4.0 0.00 0.00 0.00 86 1020.9
20260903211541 66 92 3.0 6.0 0.00 0.00 0.00 86 1020.9
20260903210040 66 93 3.0 6.0 0.00 0.00 0.00 85 1021.2
20260903204539 66 100 3.0 7.0 0.00 0.00 0.00 85 1021.4
20260903203040 67 103 2.0 7.0 0.00 0.00 0.00 85 1021.3
20260903201539 67 96 3.0 7.0 0.00 0.00 0.00 84 1021.3
20260903200042 67 92 4.0 8.0 0.00 0.00 0.00 83 1021.1
20260903194537 68 95 5.0 8.0 0.00 0.00 0.00 82 1021.2
20260903193035 68 102 4.0 8.0 0.00 0.00 0.00 82 1021.2
20260903191534 69 94 5.0 9.0 0.00 0.00 0.00 80 1021.2
20260903190040 69 104 7.0 11.0 0.00 0.00 0.00 79 1021.2
20260903184533 70 101 8.0 12.0 0.00 0.00 0.00 77 1021.1
20260903183033 71 137 8.0 16.0 0.00 0.00 0.00 75 1021.2
20260903181532 71 150 11.0 16.0 0.00 0.00 0.00 73 1021.2
20260903180049 71 110 6.0 13.0 0.00 0.00 0.00 71 1020.9
20260903174530 71 105 7.0 13.0 0.00 0.00 0.00 70 1020.8
20260903173033 72 106 5.0 11.0 0.00 0.00 0.00 69 1020.6
20260903171629 73 99 6.0 16.0 0.00 0.00 0.00 68 1020.7
20260903170041 73 98 9.0 17.0 0.00 0.00 0.00 67 1020.6
20260903164533 73 117 11.0 19.0 0.00 0.00 0.00 67 1020.6
20260903163027 73 110 8.0 18.0 0.00 0.00 0.00 66 1020.5
20260903161529 73 98 10.0 15.0 0.00 0.00 0.00 65 1020.5
20260903160037 73 96 9.0 14.0 0.00 0.00 0.00 65 1020.5
20260903154525 74 102 11.0 16.0 0.00 0.00 0.00 63 1020.5
20260903153024 75 134 10.0 20.0 0.00 0.00 0.00 62 1020.4
20260903151520 75 101 12.0 17.0 0.00 0.00 0.00 62 1020.6
20260903150019 74 110 13.0 19.0 0.00 0.00 0.00 62 1020.8
20260903144521 74 103 12.0 20.0 0.00 0.00 0.00 62 1020.9
20260903143016 75 102 10.0 17.0 0.00 0.00 0.00 62 1020.8
20260903141521 74 93 12.0 20.0 0.00 0.00 0.00 62 1020.6
20260903140011 73 106 13.0 23.0 0.00 0.00 0.00 64 1020.9
20260903134506 73 104 17.0 23.0 0.00 0.00 0.00 63 1021.0
20260903133002 73 152 15.0 21.0 0.00 0.00 0.00 62 1021.0
20260903131605 73 92 11.0 20.0 0.00 0.00 0.00 63 1021.0
20260903130058 73 133 10.0 18.0 0.00 0.00 0.00 64 1021.0
20260903124558 73 90 12.0 18.0 0.00 0.00 0.00 63 1021.1
20260903123055 73 113 10.0 19.0 0.00 0.00 0.00 63 1021.1
20260903121555 73 123 11.0 19.0 0.00 0.00 0.00 62 1021.2
20260903120053 73 90 12.0 18.0 0.00 0.00 0.00 60 1021.1
20260903114602 74 60 10.0 22.0 0.00 0.00 0.00 60 1021.2
20260903113044 72 83 14.0 21.0 0.00 0.00 0.00 60 1021.2
20260903111541 72 90 14.0 27.0 0.00 0.00 0.00 61 1021.3
20260903110039 71 92 12.0 25.0 0.00 0.00 0.00 62 1021.1
20260903104537 70 58 15.0 27.0 0.00 0.00 0.00 61 1021.1
20260903103035 70 43 12.0 21.0 0.00 0.00 0.00 63 1021.1
20260903101530 69 102 9.0 20.0 0.00 0.00 0.00 66 1021.3
20260903100031 68 105 9.0 18.0 0.00 0.00 0.00 68 1021.4
20260903094533 68 90 13.0 20.0 0.00 0.00 0.00 67 1021.7
20260903093039 67 38 12.0 18.0 0.00 0.00 0.00 67 1021.6
20260903091519 67 90 7.0 17.0 0.00 0.00 0.00 68 1021.8
20260903090021 66 94 9.0 15.0 0.00 0.00 0.00 69 1021.8
20260903084527 66 85 11.0 18.0 0.00 0.00 0.00 69 1021.7
20260903083013 65 83 9.0 16.0 0.00 0.00 0.00 69 1021.7
20260903081509 64 94 10.0 19.0 0.00 0.00 0.00 71 1021.5
20260903080006 63 43 9.0 16.0 0.00 0.00 0.00 71 1021.6